Location: Koren
(46.3458°N, 14.7256°E)
Time: 06:08:25
(UTC+00:00)

Daily predictions for brighter satellites

Satellite Brightness Start Highest point End
(mag) Time Altitude Azimuth Time Altitude Azimuth Time Altitude Azimuth
Cosmos 2278 3.8 18:32:02 10° NNW 18:37:46 71° ENE 18:43:26 10° SE
ATLAS 5 CENTAUR R/B 4.2 18:33:55 10° WNW 18:39:00 30° WSW 18:44:42 10° S
H-2A R/B 2.8 18:34:08 10° S 18:39:06 54° W 18:44:00 10° NNW
Cosmos 389 Rocket 3.2 18:38:30 10° NNW 18:41:55 56° W 18:45:20 10° S
ATLAS 3B R/B 4.2 18:41:14 10° ESE 18:43:07 11° ESE 18:45:01 10° E
Meteor 1-4 Rocket 2.9 18:39:58 10° N 18:43:16 41° ENE 18:46:33 10° SSE
Cosmos 1862 Rocket 4.5 18:40:02 10° N 18:44:02 32° ENE 18:48:00 10° SE
Cosmos 2360 Rocket 4.2 18:41:29 10° N 18:44:44 15° NE 18:47:58 10° ENE
Cosmos 676 Rocket 4.3 18:39:59 10° S 18:45:05 48° ESE 18:50:13 10° NNE
MOS 1 4.3 18:42:39 10° SSE 18:48:18 87° ENE 18:54:01 10° NNW
Genesis I 3.6 18:46:12 10° NW 18:50:03 62° WSW 18:53:52 10° SSE
USA 234 4.4 18:44:41 10° ENE 18:50:33 37° N 18:56:26 10° NW
Cosmos 1934 Rocket 4.3 18:45:40 10° SSE 18:51:45 50° E 18:57:52 10° NNE
Cosmos 1238 Rocket 4.0 18:51:42 10° ESE 18:53:25 14° E 18:55:08 10° NE
USA 276 2.9 18:51:21 10° WNW 18:54:26 47° N 18:57:31 10° E
Cosmos 1980 Rocket 2.2 18:48:58 10° NNW 18:54:41 84° ENE 19:00:20 10° SSE
X-37B 0.6 18:51:59 10° W 18:55:07 66° S 18:58:07 11° ESE
Lacrosse 5 2.2 18:52:50 10° NW 18:57:53 61° NNE 19:02:39 11° ESE
IRIDIUM 104 4.5 18:52:56 10° S 18:58:09 83° W 19:03:25 10° N
CZ-2C R/B 4.0 18:54:17 10° NNE 18:58:39 43° E 19:02:55 10° S
Resurs 01 Rocket 2.1 18:57:41 10° SE 19:01:52 43° ENE 19:06:05 10° N
Cosmos 1833 Rocket 3.6 18:57:46 10° SW 19:03:16 55° WNW 19:08:49 10° NNE
USA 238 DEB 3.6 19:00:06 10° SSW 19:06:38 69° ESE 19:13:29 10° NE
SPOT 3 Rocket 3.6 19:01:34 10° SSE 19:06:44 71° ENE 19:11:55 10° N
USA 238 3.6 19:00:12 10° SSW 19:06:45 69° ESE 19:13:35 10° NE
Cosmos 1697 Rocket 3.8 19:01:36 10° NW 19:06:54 44° WSW 19:12:10 10° S
GP-B 3.9 19:03:24 10° NNE 19:07:25 32° E 19:11:10 11° SSE
Cosmos 1867 3.8 19:03:22 10° SW 19:08:47 76° NW 19:14:17 10° NE
Cosmos 1933 Rocket 4.5 19:06:10 10° SSE 19:09:59 29° E 19:13:50 10° NNE
Cosmos 1666 Rocket 3.5 19:06:00 10° S 19:10:20 90° E 19:14:43 10° N
CENTAUR R/B 2.7 19:04:50 10° S 19:10:20 45° ESE 19:16:48 10° NE
Cosmos 1954 Rocket 4.0 19:07:54 10° SSW 19:13:13 81° ESE 19:18:34 10° NNE
DMSP B5D2-2 4.2 19:09:21 10° NNE 19:14:36 85° WNW 19:19:52 10° SSW
Spot 2 Rocket 4.4 19:11:05 13° ESE 19:14:54 32° ENE 19:19:23 10° N
Ariane Rocket 4.2 19:12:57 10° S 19:17:45 43° W 19:22:35 10° NNW
Cosmos 1821 Rocket 4.4 19:11:45 10° SSW 19:17:52 67° W 19:24:08 10° N
Cosmos 405 Rocket 3.3 19:15:00 11° SSE 19:18:13 34° E 19:21:40 10° NNE
Intercosmos 25 4.2 19:15:45 10° NNW 19:19:13 41° W 19:22:14 10° SSW
Okean 1-7 4.2 19:19:14 10° NNE 19:22:53 26° ENE 19:24:59 18° ESE
SJ-6B 4.4 19:22:05 10° SSW 19:25:46 35° W 19:29:25 10° NNW
Cosmos 2333 Rocket 4.3 19:25:44 10° N 19:28:56 15° NE 19:32:07 10° ENE
Cosmos 1763 Rocket 3.8 19:24:14 10° NNW 19:29:29 56° ENE 19:33:12 19° SE
Cosmos 1437 Rocket 3.6 19:26:50 10° N 19:30:17 31° ENE 19:31:55 22° ESE
Resurs 1-3 4.0 19:26:25 10° S 19:30:45 65° WSW 19:35:08 10° NNW
Cosmos 1703 Rocket 4.2 19:28:58 10° N 19:33:00 36° ENE 19:35:10 22° SE
OBJECT-B 1.9 19:30:16 10° S 19:33:26 44° W 19:36:37 10° NNW
H-2A R/B 3.8 19:31:14 10° NNE 19:35:12 44° E 19:38:17 16° SSE
Cosmos 2084 Rocket 3.4 19:31:18 10° SSW 19:35:24 58° SE 19:39:38 10° NE
Cosmos 1633 Rocket 3.7 19:32:52 10° SSW 19:37:14 58° WNW 19:41:36 10° N
Cosmos 1184 Rocket 3.5 19:34:52 10° SSW 19:38:07 56° WNW 19:41:23 10° N
Landsat 7 4.1 19:36:27 21° SE 19:39:25 50° ENE 19:44:02 10° N
SPOT 5 4.1 19:38:25 18° E 19:40:09 23° ENE 19:43:38 10° NNE
Cosmos 921 Rocket 3.2 19:37:40 10° NNW 19:41:51 65° WSW 19:45:04 16° S
Cosmos 2123 Rocket 4.3 19:36:41 10° NNW 19:42:52 68° W 19:49:05 10° S
MetOp-B 4.1 19:40:53 18° SSE 19:44:59 76° ENE 19:50:22 10° NNW
Meteor 1-19 Rocket 4.1 19:46:02 10° N 19:51:28 69° ENE 19:54:58 23° SSE
Cosmos 1605 Rocket 3.9 19:45:54 10° S 19:52:01 90° E 19:58:09 10° N
Okean 1 3.2 19:49:58 10° N 19:54:02 81° E 19:56:09 27° SSE
CZ-2C R/B 4.1 19:49:17 10° N 19:54:03 38° WNW 19:58:51 10° SW
Cosmos 2100 Rocket 4.5 19:52:15 23° SE 19:55:25 40° E 20:01:05 10° NNE
NOSS 3-2 (A) 4.0 19:51:14 10° SW 19:56:56 61° NW 20:03:31 10° NE
USA 267 3.4 19:51:03 10° ENE 19:57:19 47° SE 20:03:34 10° SSW
Lacrosse 4 Rocket 3.5 20:01:22 13° ENE 20:01:22 13° ENE 20:02:06 10° ENE
Cosmos 2219 Rocket 4.0 19:55:23 10° N 19:59:27 20° NE 20:02:41 13° E
Cosmos 2173 Rocket 4.4 19:56:36 25° SE 19:59:31 40° E 20:05:09 10° NNE
Meteor 2-4 Rocket 4.0 19:54:38 10° N 20:00:06 50° ENE 20:02:34 29° SE
Cosmos 540 Rocket 3.7 19:57:18 10° NNW 20:02:24 55° ENE 20:04:39 31° SE
SL-16 R/B 2.2 19:57:38 10° NNW 20:03:21 88° ENE 20:06:28 28° SSE
SL-4 R/B 3.2 20:00:53 10° WNW 20:04:33 36° N 20:07:25 14° ENE
BREEZE-M DEB (TANK) 3.2 20:02:23 10° WNW 20:05:17 59° N 20:13:25 10° E
SL-27 R/B 2.1 20:04:28 33° SSW 20:05:47 81° ESE 20:09:07 10° NNE
Cosmos 2242 Rocket 3.7 20:02:15 10° NNW 20:06:40 75° W 20:09:08 26° S
Cosmos 1470 Rocket 4.4 20:02:48 10° SSW 20:07:04 50° WNW 20:11:20 10° N
NOSS 3-2 (C) 3.5 20:01:45 10° SW 20:07:29 77° NW 20:14:07 10° NE
Cosmos 2082 Rocket 4.2 20:07:10 10° WSW 20:12:09 30° NW 20:17:07 10° N
Cosmos 1459 Rocket 4.3 20:09:17 28° SSE 20:12:25 51° E 20:18:33 10° NNE
BREEZE-M DEB (TANK) 2.5 20:10:34 10° WNW 20:12:31 43° NNW 20:12:31 43° NNW
ERS-1 Rocket 3.0 20:16:14 37° SE 20:18:05 63° ENE 20:23:03 10° N
Meteor 1-14 Rocket 4.3 20:13:21 12° S 20:18:49 87° WNW 20:24:50 10° N
SAR-Lupe-2 4.4 20:17:00 10° NNE 20:19:45 36° ENE 20:19:45 36° ENE
Cosmos 2322 Rocket 2.2 20:14:57 10° NNW 20:20:40 83° WSW 20:23:15 34° SSE
Cosmos 1850 Rocket 4.4 20:18:54 10° SSW 20:24:09 64° WNW 20:29:24 10° NNE
Cosmos 967 Rocket 4.4 20:18:00 10° NW 20:24:24 85° NE 20:27:10 36° SE
Cosmos 1500 3.0 20:25:36 67° SE 20:25:49 70° E 20:29:34 10° NNE
SPOT 1/Viking Rocket 3.6 20:23:32 32° S 20:26:03 78° WSW 20:31:19 10° NNW
Cosmos 1536 4.3 20:27:22 23° ENE 20:27:22 23° ENE 20:29:43 10° NNE
Cosmos 2221 Rocket 4.1 20:23:22 10° N 20:27:39 41° ENE 20:28:08 40° E
Cosmos 841 Rocket 3.4 20:22:48 10° NNW 20:28:04 89° WSW 20:29:56 42° SSE
Terra 2.2 20:27:56 42° ESE 20:28:57 50° ENE 20:33:34 10° N
Cosmos 2360 Rocket 2.3 20:24:13 10° NNW 20:29:53 66° ENE 20:31:48 41° SE
USA 276 2.9 20:27:42 10° WNW 20:30:10 43° WSW 20:30:10 43° WSW
IGS 5A 4.2 20:29:39 29° SSW 20:31:21 47° W 20:35:23 10° NNW
X-37B 2.5 20:28:42 10° W 20:30:22 22° WSW 20:30:22 22° WSW
Okean 3 3.6 20:27:27 10° N 20:31:42 55° ENE 20:32:07 53° ESE
ATLAS 3B R/B 2.5 20:25:59 10° SSW 20:32:28 64° ESE 20:39:02 10° NE
USA 234 3.5 20:29:00 25° E 20:32:55 62° NNE 20:39:22 10° NW
Cosmos 2237 4.2 20:28:20 10° NNW 20:34:05 78° ENE 20:35:58 44° SE
Cosmos 1666 3.7 20:37:36 32° NE 20:37:36 32° NE 20:40:09 10° NNE
Resurs 01 Rocket 3.8 20:35:13 10° SW 20:38:33 21° W 20:41:54 10° NW
Iridium 4 Rocket 3.0 20:38:44 59° E 20:38:50 59° E 20:42:56 10° N
Cosmos 44 3.8 20:34:19 10° NW 20:39:09 54° WSW 20:40:36 40° S
Lacrosse 5 3.0 20:36:10 10° WNW 20:40:36 31° SW 20:41:50 27° SSW
CARTOSAT-1 3.5 20:40:30 57° S 20:41:21 79° WSW 20:45:41 10° NNW
Cosmos 2061 Rocket 3.9 20:50:45 46° SSE 20:52:36 68° E 20:58:46 10° NNE
Cosmos 1814 Rocket 4.2 20:50:31 10° NNW 20:55:43 65° WSW 20:56:56 49° SSW
COSMOS 2428 3.5 20:50:58 10° NNW 20:56:20 39° NE 20:57:48 33° E
Cosmos 1802 Rocket 3.9 20:54:58 39° S 20:57:37 87° E 21:03:58 10° N
Cosmos 1869 Rocket 4.3 20:57:44 34° SW 20:59:16 51° WNW 21:03:39 10° N
Cosmos 2237 Rocket 4.0 20:56:19 10° N 21:00:28 20° NE 21:02:46 16° ENE
CENTAUR R/B 3.7 20:55:08 10° WSW 21:01:01 46° NW 21:08:00 10° NE
Cosmos 44 Rocket 4.0 20:58:36 10° NNW 21:03:23 44° NE 21:04:15 40° ENE
Cosmos 1816 Rocket 4.4 21:01:25 10° N 21:07:41 76° E 21:09:03 56° SSE
Cosmos 1271 Rocket 4.3 21:06:59 10° N 21:09:23 27° NE 21:09:23 27° NE
Cosmos 2333 Rocket 2.3 21:08:42 10° NNW 21:14:27 62° ENE 21:15:19 55° E
Cosmos 1674 Rocket 4.0 21:10:11 10° N 21:13:54 52° NE 21:13:54 52° NE
ATLAS 5 CENTAUR R/B 2.3 21:11:32 10° NW 21:14:32 84° NE 21:14:58 72° ESE
SPOT 5 3.5 21:17:39 38° WSW 21:18:01 39° W 21:22:12 10° NNW
Cosmos 1066 Rocket 4.0 21:15:16 10° N 21:20:57 84° E 21:21:30 73° SSE
Cosmos 1486 Rocket 4.0 21:22:06 67° E 21:22:06 67° E 21:26:59 10° NNE
BREEZE-M DEB (TANK) 4.2 21:11:33 10° W 21:27:18 87° S 21:28:57 50° ESE
Cosmos 1733 Rocket 3.3 21:29:41 67° NNW 21:29:41 67° NNW 21:33:39 10° N
CRYOSAT 2 4.4 21:25:42 10° N 21:30:14 71° NE 21:30:14 71° NE
ERBS 4.5 21:28:23 10° NW 21:30:13 25° NNW 21:30:13 25° NNW
Meteor 1-11 Rocket 4.1 21:31:46 44° SW 21:33:23 61° WNW 21:39:10 10° N
Cosmos 489 Rocket 4.3 21:29:34 10° NNW 21:35:55 78° ENE 21:36:44 67° SE
Cosmos 968 Rocket 3.5 21:37:25 71° NE 21:37:25 71° NE 21:42:04 10° NNE
Lacrosse 4 Rocket 2.2 21:37:37 50° NW 21:37:37 50° NW 21:41:34 10° NNE
Tsikada Rocket 4.0 21:31:21 10° NNW 21:37:40 75° W 21:38:46 60° SSW
Cosmos 2227 Rocket 4.3 21:40:11 13° ENE 21:40:11 13° ENE 21:41:24 10° ENE
ALOS 2 4.0 21:39:37 29° NE 21:39:37 29° NE 21:42:47 10° N
USA 267 3.6 21:34:02 10° NE 21:40:29 65° NNW 21:46:57 10° WSW
Cosmos 2219 Rocket 2.0 21:38:30 10° NNW 21:44:14 89° WSW 21:44:23 85° SSE
SL-4 R/B 3.6 21:40:55 10° WNW 21:42:58 29° NW 21:42:58 29° NW
SL-16 R/B 4.3 21:43:38 10° WNW 21:46:37 15° W 21:48:20 13° WSW
Cosmos 2322 4.1 21:52:01 10° NW 21:57:25 50° WSW 21:57:25 50° WSW
Spot 4 4.1 21:58:19 67° N 21:58:19 67° N 22:02:31 10° NNW
Cosmos 2322 Rocket 4.4 22:01:19 10° WNW 22:03:47 13° W 22:05:03 12° WSW
Terra 3.7 22:06:49 20° W 22:06:59 20° W 22:10:32 10° NW
Cosmos 2360 Rocket 3.9 22:09:16 10° NW 22:13:19 21° W 22:13:33 20° WSW
USA 234 3.5 22:16:20 50° SW 22:16:20 50° SW 22:22:23 10° WNW
SL-16 R/B 3.7 22:11:19 10° N 22:16:08 27° NE 22:17:41 24° ENE
MOS 1-B Rocket 4.3 22:16:54 10° N 22:22:19 52° WNW 22:23:10 48° W
Cosmos 1354 Rocket 4.2 22:23:58 68° NNW 22:23:58 68° NNW 22:28:52 10° NNE
ATLAS 3B R/B 4.0 22:17:32 10° WSW 22:23:34 36° NW 22:29:42 10° NNE
Cosmos 1975 Rocket 4.1 22:24:11 10° N 22:27:17 44° N 22:27:17 44° N
Cosmos 2297 Rocket 3.0 22:32:11 40° ENE 22:32:11 40° ENE 22:36:13 10° NE
Meteor 1-21 4.3 22:27:34 10° NNW 22:33:00 78° NNW 22:33:00 78° NNW
Meteor 2-9 Rocket 4.3 22:35:06 77° N 22:35:06 77° N 22:40:29 10° N
Thor Agena Rocket 4.0 22:30:20 10° N 22:35:03 56° NW 22:35:03 56° NW
Nimbus 7 Rocket 4.3 22:31:24 10° NNE 22:37:08 85° N 22:37:08 85° N
Cosmos 1980 3.8 22:31:48 10° NNW 22:36:58 74° NNW 22:36:58 74° NNW
Timation 2 Rocket 3.8 22:39:51 83° NNE 22:39:51 83° NNE 22:45:38 10° NNE
COSMOS 2428 3.7 22:35:21 10° NW 22:39:48 36° W 22:39:48 36° W
Cosmos 2237 Rocket 2.3 22:39:36 10° NNW 22:44:34 69° NW 22:44:34 69° NW
Cosmos 2219 3.5 22:46:31 57° NE 22:46:31 57° NE 22:51:06 10° NNE
SJ 16-02 3.8 22:47:38 15° ENE 22:47:38 15° ENE 22:48:44 10° NE
Cosmos 1464 Rocket 3.9 22:46:11 81° W 22:46:11 81° W 22:52:24 10° N
Okean 2 Rocket 4.4 22:53:44 38° NNE 22:53:44 38° NNE 22:56:36 10° NNE
NOSS 0 Rocket 4.3 22:46:22 10° NW 22:51:50 52° W 22:51:50 52° W
Nadezhda 4 Rocket 3.9 22:48:44 10° N 22:54:56 87° NNE 22:54:56 87° NNE
Cosmos 2333 Rocket 3.9 22:53:51 10° NW 22:57:19 22° W 22:57:19 22° W
NOSS 3-1 (C) 4.4 23:16:43 32° E 23:16:43 32° E 23:20:53 10° NE
Cosmos 1092 Rocket 3.9 23:10:34 10° N 23:16:44 82° ENE 23:16:44 82° ENE
Cosmos 2034 Rocket 4.1 23:19:27 64° W 23:19:34 65° WNW 23:25:54 10° N
Cosmos 2227 Rocket 2.3 23:21:59 73° N 23:21:59 73° N 23:27:08 10° NNE
Cosmos 2219 Rocket 4.4 23:24:27 10° WNW 23:26:05 13° W 23:26:05 13° W
Meteor 1-12 Rocket 4.5 23:28:42 67° WNW 23:28:42 67° WNW 23:34:36 10° N
Resurs 1-4 Rocket 3.9 23:31:41 10° NE 23:35:32 20° E 23:35:32 20° E
Meteor 2-5 Rocket 4.0 23:31:25 10° N 23:36:52 57° ENE 23:36:52 57° ENE
Cosmos 158 Rocket 4.2 23:41:52 10° NNW 23:46:39 69° N 23:46:39 69° N
Cosmos 1607 4.2 23:41:56 10° NW 23:47:26 56° W 23:47:26 56° W
Cosmos 2082 3.7 23:48:47 76° NNE 23:48:47 76° NNE 23:53:59 10° NNE
USA 229 DEB 3.7 23:53:16 61° ESE 23:53:16 61° ESE 23:59:58 10° NE
Helios 1B rocket 3.8 23:51:43 10° NNE 23:54:18 38° N 23:54:18 38° N
